Date String (YYYY-MM-DD hh:mm:ss) UTC,Instrument flags,absolute air pressure of the measurement (hPa),sample flow rate (lpm),inlet stack bypass flow (lpm),air temperature of the measurement (°C),ambient temperature measured by the external sensor (°C),aerosol sample conditioner tube jacket temperature (°C),OPC LED temperature (°C),internal box temperature (°C),relative humidity of the measurement (%),span deviation,mass concentration of particles derived from Lorenz-Mie calculation of OPC scattering (μg/m³),mass concentration of particles derived from Lorenz-Mie calculation of OPC scattering (μg/m³),mass concentration of particles derived from Lorenz-Mie calculation of OPC scattering (μg/m³)
DateTimeUTC,F1_M11,P_M11,Q1_M11,Q2_M11,T1_M11,T2_M11,T3_M11,T4_M11,T5_M11,U1_M11,ZSPAN_M11,X0_M11,X2_M11,X1_M11
2023-08-31 01:00:00,SystemResetWarning,0827.8,4.97,000.00,025.6,023.2,000.0,033.7,027.0,25.2,0000.0,0007.63,0003.41,0002.81
2023-08-31 01:01:00,SystemResetWarning,0827.8,5.01,000.00,025.5,022.4,000.0,033.6,026.8,25.7,0000.0,0008.07,0003.45,0002.92
2023-08-31 01:02:00,SystemResetWarning,0827.7,5.01,000.00,025.4,022.6,000.0,033.6,026.9,25.9,0000.0,0008.06,0003.48,0003.01
2023-08-31 01:03:00,SystemResetWarning,0827.8,5.00,000.00,025.4,023.0,000.0,033.6,026.9,25.9,0000.0,0008.06,0003.49,0003.08
2023-08-31 01:04:00,SystemResetWarning,0827.8,4.99,000.00,025.5,023.4,000.0,033.7,027.1,25.9,0000.0,0008.07,0003.52,0003.13
2023-08-31 01:05:00,SystemResetWarning,0827.8,5.01,000.00,025.5,023.8,000.0,033.7,027.3,25.8,0000.0,0007.67,0003.55,0003.15
2023-08-31 01:06:00,SystemResetWarning,0827.8,4.99,000.00,025.6,024.2,000.0,033.7,027.4,25.8,0000.0,0006.99,0003.57,0003.19
2023-08-31 01:07:00,SystemResetWarning,0827.9,4.98,000.00,025.6,023.8,000.0,033.7,027.2,25.9,0000.0,0007.07,0003.61,0003.23
2023-08-31 01:08:00,SystemResetWarning,0827.8,5.01,000.00,025.5,022.6,000.0,033.7,026.8,25.9,0000.0,0007.21,0003.65,0003.26
2023-08-31 01:09:00,SystemResetWarning,0827.8,5.01,000.00,025.5,022.4,000.0,033.6,026.8,26.2,0000.0,0007.07,0003.70,0003.31
2023-08-31 01:10:00,SystemResetWarning,0827.8,5.00,000.00,025.4,022.8,000.0,033.6,026.9,26.3,0000.0,0007.00,0003.73,0003.35
2023-08-31 01:11:00,SystemResetWarning,0827.8,5.00,000.00,025.4,023.2,000.0,033.7,027.0,26.1,0000.0,0007.03,0003.75,0003.39
2023-08-31 01:12:00,SystemResetWarning,0827.8,5.00,000.00,025.5,023.6,000.0,033.7,027.2,25.9,0000.0,0006.54,0003.81,0003.41
2023-08-31 01:13:00,SystemResetWarning,0827.9,5.00,000.00,025.6,024.0,000.0,033.7,027.3,25.9,0000.0,0007.23,0003.85,0003.42
2023-08-31 01:14:00,SystemResetWarning,0827.9,4.99,000.00,025.6,024.1,000.0,033.7,027.4,26.0,0000.0,0007.35,0003.88,0003.43
2023-08-31 01:15:00,SystemResetWarning,0827.8,4.99,000.00,025.6,023.0,000.0,033.7,027.0,25.9,0000.0,0007.36,0003.89,0003.45
2023-08-31 01:16:00,SystemResetWarning,0827.8,5.01,000.00,025.5,022.2,000.0,033.6,026.7,25.9,0000.0,0007.50,0003.88,0003.46
2023-08-31 01:17:00,SystemResetWarning,0827.9,5.01,000.00,025.4,022.4,000.0,033.6,026.8,25.9,0000.0,0007.77,0003.89,0003.46
2023-08-31 01:18:00,SystemResetWarning,0827.8,5.00,000.00,025.4,022.8,000.0,033.6,026.8,26.0,0000.0,0008.25,0003.92,0003.49
2023-08-31 01:19:00,SystemResetWarning,0827.8,5.00,000.00,025.4,023.2,000.0,033.7,027.0,26.1,0000.0,0008.17,0003.91,0003.50
2023-08-31 01:20:00,SystemResetWarning,0827.8,5.01,000.00,025.5,023.7,000.0,033.7,027.2,26.0,0000.0,0008.78,0003.91,0003.50
2023-08-31 01:21:00,SystemResetWarning,0827.8,4.99,000.00,025.6,024.1,000.0,033.7,027.4,25.7,0000.0,0009.49,0003.90,0003.50
2023-08-31 01:22:00,SystemResetWarning,0827.8,4.98,000.00,025.6,023.5,000.0,033.7,027.1,25.0,0000.0,0009.95,0003.92,0003.50
2023-08-31 01:23:00,SystemResetWarning,0827.8,5.00,000.00,025.5,022.3,000.0,033.6,026.7,24.9,0000.0,0010.09,0003.95,0003.51
2023-08-31 01:24:00,SystemResetWarning,0827.8,5.02,000.00,025.4,022.2,000.0,033.6,026.7,25.3,0000.0,0009.81,0003.97,0003.53
2023-08-31 01:25:00,SystemResetWarning,0827.8,5.00,000.00,025.3,022.6,000.0,033.6,026.7,25.7,0000.0,0009.95,0004.01,0003.56
2023-08-31 01:26:00,SystemResetWarning,0827.8,5.00,000.00,025.4,023.0,000.0,033.6,026.9,26.3,0000.0,0010.64,0004.04,0003.59
2023-08-31 01:27:00,SystemResetWarning,0827.8,5.00,000.00,025.4,023.5,000.0,033.6,027.1,26.4,0000.0,0010.51,0004.05,0003.61
2023-08-31 01:28:00,SystemResetWarning,0827.8,5.00,000.00,025.5,023.9,000.0,033.7,027.3,26.2,0000.0,0010.33,0004.07,0003.63
2023-08-31 01:29:00,SystemResetWarning,0827.8,5.00,000.00,025.6,024.2,000.0,033.7,027.4,26.0,0000.0,0011.17,0004.08,0003.63
2023-08-31 01:30:00,SystemResetWarning,0827.8,4.99,000.00,025.6,023.6,000.0,033.7,027.2,25.9,0000.0,0011.94,0004.08,0003.64
2023-08-31 01:31:00,SystemResetWarning,0827.7,4.99,000.00,025.4,022.4,000.0,033.6,026.7,25.1,0000.0,0011.57,0004.10,0003.65
2023-08-31 01:32:00,SystemResetWarning,0827.8,5.02,000.00,025.4,022.2,000.0,033.6,026.7,24.8,0000.0,0011.31,0004.13,0003.67
2023-08-31 01:33:00,SystemResetWarning,0827.8,4.99,000.00,025.3,022.6,000.0,033.6,026.8,24.7,0000.0,0011.04,0004.15,0003.69
2023-08-31 01:34:00,SystemResetWarning,0827.8,4.99,000.00,025.3,023.0,000.0,033.6,026.9,24.7,0000.0,0011.56,0004.12,0003.69
2023-08-31 01:35:00,SystemResetWarning,0827.8,5.01,000.00,025.4,023.4,000.0,033.6,027.1,24.6,0000.0,0011.55,0004.11,0003.69
2023-08-31 01:36:00,SystemResetWarning,0827.8,5.01,000.00,025.5,023.9,000.0,033.7,027.2,24.7,0000.0,0011.71,0004.10,0003.69
2023-08-31 01:37:00,SystemResetWarning,0827.8,4.99,000.00,025.5,024.2,000.0,033.7,027.4,25.1,0000.0,0011.06,0004.11,0003.69
2023-08-31 01:38:00,SystemResetWarning,0827.8,4.99,000.00,025.6,023.6,000.0,033.7,027.2,25.1,0000.0,0011.45,0004.13,0003.68
2023-08-31 01:39:00,SystemResetWarning,0827.8,5.01,000.00,025.5,022.3,000.0,033.6,026.7,25.2,0000.0,0011.46,0004.11,0003.68
2023-08-31 01:40:00,SystemResetWarning,0827.8,5.01,000.00,025.4,022.2,000.0,033.5,026.7,25.3,0000.0,0010.63,0004.13,0003.69
2023-08-31 01:41:00,SystemResetWarning,0827.8,5.01,000.00,025.3,022.5,000.0,033.6,026.7,25.4,0000.0,0009.56,0004.14,0003.69
2023-08-31 01:42:00,SystemResetWarning,0827.9,5.00,000.00,025.3,022.9,000.0,033.6,026.9,25.4,0000.0,0009.52,0004.13,0003.69
2023-08-31 01:43:00,SystemResetWarning,0827.9,5.01,000.00,025.4,023.4,000.0,033.6,027.1,25.3,0000.0,0009.15,0004.12,0003.69
2023-08-31 01:44:00,SystemResetWarning,0827.9,4.99,000.00,025.5,023.8,000.0,033.6,027.2,25.0,0000.0,0009.39,0004.12,0003.70
2023-08-31 01:45:00,SystemResetWarning,0827.9,4.99,000.00,025.5,024.2,000.0,033.7,027.3,24.6,0000.0,0009.28,0004.16,0003.71
2023-08-31 01:46:00,SystemResetWarning,0827.8,4.99,000.00,025.5,023.6,000.0,033.6,027.1,24.7,0000.0,0009.87,0004.14,0003.71
2023-08-31 01:47:00,SystemResetWarning,0827.8,5.00,000.00,025.4,022.4,000.0,033.6,026.6,25.1,0000.0,0009.66,0004.12,0003.71
2023-08-31 01:48:00,SystemResetWarning,0827.9,5.02,000.00,025.3,022.1,000.0,033.5,026.6,25.2,0000.0,0009.45,0004.09,0003.71
2023-08-31 01:49:00,SystemResetWarning,0827.9,5.00,000.00,025.3,022.5,000.0,033.5,026.7,25.4,0000.0,0009.23,0004.08,0003.70
2023-08-31 01:50:00,SystemResetWarning,0828.0,5.00,000.00,025.3,022.9,000.0,033.6,026.8,25.3,0000.0,0009.85,0004.11,0003.70
2023-08-31 01:51:00,SystemResetWarning,0828.0,5.00,000.00,025.3,023.3,000.0,033.6,027.0,25.2,0000.0,0009.74,0004.09,0003.69
2023-08-31 01:52:00,SystemResetWarning,0828.1,5.00,000.00,025.4,023.8,000.0,033.6,027.2,25.2,0000.0,0009.80,0004.09,0003.69
2023-08-31 01:53:00,SystemResetWarning,0828.1,5.00,000.00,025.5,024.2,000.0,033.6,027.3,25.1,0000.0,0009.83,0004.08,0003.68
2023-08-31 01:54:00,SystemResetWarning,0828.1,5.00,000.00,025.6,024.2,000.0,033.7,027.4,25.1,0000.0,0010.39,0004.11,0003.68
2023-08-31 01:55:00,SystemResetWarning,0828.1,4.98,000.00,025.5,023.0,000.0,033.6,026.9,25.1,0000.0,0010.38,0004.13,0003.66
2023-08-31 01:56:00,SystemResetWarning,0828.0,5.02,000.00,025.4,022.1,000.0,033.5,026.7,25.2,0000.0,0009.59,0004.10,0003.65
2023-08-31 01:57:00,SystemResetWarning,0828.0,5.01,000.00,025.3,022.3,000.0,033.5,026.7,25.4,0000.0,0009.16,0004.08,0003.62
2023-08-31 01:58:00,SystemResetWarning,0828.1,4.99,000.00,025.3,022.7,000.0,033.5,026.7,25.6,0000.0,0009.48,0004.07,0003.60
2023-08-31 01:59:00,SystemResetWarning,0828.1,5.00,000.00,025.3,023.1,000.0,033.6,026.9,25.2,0000.0,0009.50,0004.06,0003.57
